Lid_Strength_Index
5 5 4 4 4 3 3 3 2 2 2 2 4 6 5 2 2 2 2 2 2 3 3 2 1 1 1 1 1 1 1 2 2
6 5 4 4 4 3 3 3 3 2 2 3 4 5 3 3 2 1 1 2 3 3 2 1 1 1 1 1 1 1 1 2 2
6 5 4 4 4 3 3 3 2 2 2 3 4 3 3 2 1 1 2 2 2 1 2 2 1 1 2 1 1 1 1 2 2
6 6 5 4 4 3 3 2 2 2 2 3 4 2 2 1 1 2 2 2 2 2 2 1 1 1 1 2 2 1 1 2 2
6 6 5 4 4 3 3 3 3 3 2 3 3 2 2 2 1 2 2 2 2 2 2 1 1 1 1 1 1 2 2 2 2
6 5 5 4 4 4 4 3 3 3 2 3 3 2 2 2 3 3 3 2 2 2 2 2 1 2 2 2 2 2 2 2 2
6 5 5 5 4 4 4 3 3 3 2 3 3 2 3 2 3 2 2 2 2 2 2 2 2 2 1 2 2 2 2 2 2
5 6 5 5 4 4 4 4 3 3 2 2 3 3 2 3 2 2 2 2 1 2 2 2 2 2 2 2 1 1 2 2 1
7 7 5 5 5 4 4 4 3 3 3 2 3 4 3 2 2 2 2 1 1 2 2 2 2 2 2 2 1 1 2 2 3
7 6 5 5 5 4 4 3 3 3 3 3 3 3 3 2 2 2 2 1 2 2 3 3 2 2 3 2 2 2 2 1 2
7 6 6 6 5 4 3 3 3 3 4 3 4 4 3 2 2 2 2 2 2 2 2 2 3 3 2 3 2 3 3 2 2
6 6 5 5 4 4 3 3 3 4 4 4 4 4 3 2 2 2 2 2 2 2 2 3 3 3 2 3 2 4 3 3 3
4 4 4 4 4 3 4 4 3 4 5 5 5 4 3 2 2 2 2 2 2 2 3 2 3 3 3 2 2 4 4 4 3
4 4 4 4 4 4 4 4 3 5 5 5 4 4 2 2 2 2 2 2 2 2 3 4 3 3 2 1 2 2 4 4 4
5 4 4 4 4 4 4 4 5 6 6 4 4 2 2 2 2 1 1 2 2 3 3 4 4 4 3 1 3 5 5 4 5
5 5 4 4 6 6 4 5 6 7 7 5 4 5 5 5 3 3 2 2 3 3 4 4 4 4 3 4 4 6 6 6 5
5 5 5 5 5 5 6 6 6 7 5 5 4 4 3 3 2 3 2 2 3 4 4 4 4 4 5 5 6 7 7 6 6
5 4 4 6 6 7 7 6 5 5 5 4 5 3 3 3 3 2 4 6 6 6 9 7 5 6 5 5 7 7 8 8 6
4 5 6 7 6 5 5 5 5 4 4 4 4 4 3 4 2 3 6 8 10 11 11 11 11 9 8 8 8 9 9 9 10
5 5 5 6 5 4 3 3 4 3 3 3 3 3 3 2 4 4 6 7 8 8 8 9 10 11 9 9 8 9 9 9 9